| time (UTC) | temp C | wind direction | speed KPH | gust KPH | rain 1hr cm | rain 24hr cm | rain mn cm | humidity % | barometer mb |
| 20260507160030 | 17 | 11 | 9.7 | 46.7 | 0.00 | 0.00 | 0.00 | 60 | 1016.3 |
| 20260507154615 | 16 | 253 | 6.4 | 27.4 | 0.00 | 0.00 | 0.00 | 63 | 1016.5 |
| 20260507153032 | 16 | 11 | 6.4 | 27.4 | 0.00 | 0.00 | 0.00 | 62 | 1016.6 |
| 20260507151611 | 16 | 216 | 3.2 | 24.1 | 0.00 | 0.00 | 0.00 | 66 | 1016.9 |
| 20260507150031 | 15 | 268 | 11.3 | 22.5 | 0.00 | 0.00 | 0.00 | 65 | 1017.2 |
| 20260507144615 | 15 | 11 | 6.4 | 22.5 | 0.00 | 0.00 | 0.00 | 69 | 1017.2 |
| 20260507143034 | 13 | 11 | 6.4 | 22.5 | 0.00 | 0.00 | 0.00 | 70 | 1017.1 |
| 20260507141625 | 13 | 201 | 4.8 | 22.5 | 0.00 | 0.00 | 0.00 | 73 | 1017.0 |
| 20260507140042 | 12 | 11 | 4.8 | 19.3 | 0.00 | 0.00 | 0.00 | 76 | 1017.2 |
| 20260507134632 | 11 | 11 | 3.2 | 14.5 | 0.00 | 0.00 | 0.00 | 79 | 1017.2 |
| 20260507133051 | 10 | 11 | 4.8 | 14.5 | 0.00 | 0.00 | 0.00 | 81 | 1017.2 |
| 20260507131505 | 9 | 11 | 4.8 | 19.3 | 0.00 | 0.00 | 0.00 | 82 | 1017.2 |
| 20260507130053 | 8 | 11 | 3.2 | 9.7 | 0.00 | 0.00 | 0.00 | 83 | 1017.3 |
| 20260507124505 | 8 | 227 | 0.0 | 9.7 | 0.00 | 0.00 | 0.00 | 83 | 1017.5 |
| 20260507123054 | 7 | 11 | 1.6 | 12.9 | 0.00 | 0.00 | 0.00 | 83 | 1017.5 |
| 20260507121511 | 7 | 11 | 3.2 | 14.5 | 0.00 | 0.00 | 0.00 | 82 | 1017.5 |
| 20260507120103 | 6 | 11 | 6.4 | 12.9 | 0.00 | 0.00 | 0.00 | 81 | 1017.5 |
| 20260507114515 | 6 | 11 | 3.2 | 12.9 | 0.00 | 0.00 | 0.00 | 80 | 1017.3 |
| 20260507113129 | 6 | 11 | 1.6 | 9.7 | 0.00 | 0.00 | 0.00 | 80 | 1017.4 |
| 20260507111558 | 6 | 11 | 1.6 | 9.7 | 0.00 | 0.00 | 0.00 | 79 | 1017.3 |
| 20260507110005 | 6 | 11 | 4.8 | 12.9 | 0.00 | 0.00 | 0.00 | 78 | 1017.1 |
| 20260507104543 | 6 | 11 | 0.0 | 8.0 | 0.00 | 0.00 | 0.00 | 76 | 1017.2 |
| 20260507103129 | 6 | 11 | 1.6 | 12.9 | 0.00 | 0.00 | 0.00 | 76 | 1017.4 |
| 20260507101553 | 6 | 11 | 1.6 | 12.9 | 0.00 | 0.00 | 0.00 | 75 | 1017.2 |
| 20260507100131 | 6 | 11 | 1.6 | 12.9 | 0.00 | 0.00 | 0.00 | 74 | 1017.2 |
| 20260507094542 | 7 | 11 | 3.2 | 12.9 | 0.00 | 0.00 | 0.00 | 74 | 1017.3 |
| 20260507093134 | 6 | 11 | 3.2 | 9.7 | 0.00 | 0.00 | 0.00 | 73 | 1017.4 |
| 20260507091541 | 6 | 11 | 3.2 | 14.5 | 0.00 | 0.00 | 0.00 | 74 | 1017.5 |
| 20260507090128 | 7 | 228 | 0.0 | 9.7 | 0.00 | 0.00 | 0.00 | 74 | 1017.6 |
| 20260507084548 | 7 | 11 | 1.6 | 8.0 | 0.00 | 0.00 | 0.00 | 74 | 1017.6 |
| 20260507083002 | 7 | 11 | 1.6 | 8.0 | 0.00 | 0.00 | 0.00 | 74 | 1017.7 |
| 20260507081553 | 7 | 11 | 0.0 | 8.0 | 0.00 | 0.00 | 0.00 | 73 | 1017.7 |
| 20260507080012 | 7 | 11 | 1.6 | 8.0 | 0.00 | 0.00 | 0.00 | 73 | 1017.6 |
| 20260507074558 | 7 | 11 | 4.8 | 14.5 | 0.00 | 0.00 | 0.00 | 73 | 1017.6 |
| 20260507073013 | 7 | 11 | 0.0 | 8.0 | 0.00 | 0.00 | 0.00 | 71 | 1017.7 |
| 20260507071610 | 7 | 11 | 0.0 | 4.8 | 0.00 | 0.00 | 0.00 | 69 | 1017.9 |
| 20260507070025 | 8 | 11 | 0.0 | 4.8 | 0.00 | 0.00 | 0.00 | 68 | 1018.1 |
| 20260507064626 | 8 | 11 | 0.0 | 4.8 | 0.00 | 0.00 | 0.00 | 67 | 1018.1 |
| 20260507063031 | 8 | 11 | 0.0 | 4.8 | 0.00 | 0.00 | 0.00 | 66 | 1018.2 |
| 20260507061618 | 9 | 243 | 0.0 | 9.7 | 0.00 | 0.00 | 0.00 | 65 | 1018.3 |
| 20260507060036 | 9 | 11 | 1.6 | 8.0 | 0.00 | 0.00 | 0.00 | 63 | 1018.4 |
| 20260507054620 | 9 | 11 | 1.6 | 9.7 | 0.00 | 0.00 | 0.00 | 63 | 1018.3 |
| 20260507053039 | 9 | 11 | 3.2 | 9.7 | 0.00 | 0.00 | 0.00 | 63 | 1018.4 |
| 20260507051634 | 9 | 11 | 3.2 | 8.0 | 0.00 | 0.00 | 0.00 | 62 | 1018.3 |
| 20260507050053 | 9 | 11 | 3.2 | 14.5 | 0.00 | 0.00 | 0.00 | 62 | 1018.3 |
| 20260507044517 | 9 | 11 | 3.2 | 14.5 | 0.00 | 0.00 | 0.00 | 62 | 1018.4 |
| 20260507043104 | 9 | 11 | 3.2 | 8.0 | 0.00 | 0.00 | 0.00 | 61 | 1018.4 |
| 20260507041539 | 10 | 11 | 4.8 | 12.9 | 0.00 | 0.00 | 0.00 | 60 | 1018.4 |
| 20260507040121 | 9 | 11 | 3.2 | 9.7 | 0.00 | 0.00 | 0.00 | 59 | 1018.4 |
| 20260507034545 | 9 | 11 | 3.2 | 9.7 | 0.00 | 0.00 | 0.00 | 58 | 1018.5 |
| 20260507033132 | 9 | 24 | 1.6 | 4.8 | 0.00 | 0.00 | 0.00 | 59 | 1018.6 |
| 20260507031552 | 10 | 20 | 0.0 | 1.6 | 0.00 | 0.00 | 0.00 | 59 | 1018.4 |
| 20260507030004 | 10 | 20 | 0.0 | 0.0 | 0.00 | 0.00 | 0.00 | 56 | 1018.4 |
| 20260507024607 | 10 | 20 | 0.0 | 0.0 | 0.00 | 0.00 | 0.00 | 54 | 1018.5 |
| 20260507023018 | 10 | 20 | 0.0 | 0.0 | 0.00 | 0.00 | 0.00 | 57 | 1018.3 |
| 20260507021614 | 10 | 20 | 0.0 | 0.0 | 0.00 | 0.00 | 0.00 | 58 | 1018.2 |
| 20260507020027 | 11 | 20 | 0.0 | 0.0 | 0.00 | 0.00 | 0.00 | 51 | 1018.0 |
| 20260507014610 | 11 | 20 | 0.0 | 1.6 | 0.00 | 0.00 | 0.00 | 50 | 1017.9 |
| 20260507013039 | 12 | 20 | 0.0 | 1.6 | 0.00 | 0.00 | 0.00 | 49 | 1017.9 |
| 20260507011623 | 12 | 20 | 0.0 | 0.0 | 0.00 | 0.00 | 0.00 | 47 | 1017.8 |
| 20260507010042 | 13 | 20 | 0.0 | 1.6 | 0.00 | 0.00 | 0.00 | 46 | 1017.6 |
| 20260507004501 | 13 | 20 | 0.0 | 6.4 | 0.00 | 0.00 | 0.00 | 43 | 1017.6 |
| 20260507003048 | 13 | 11 | 1.6 | 6.4 | 0.00 | 0.00 | 0.00 | 42 | 1017.6 |
| 20260507001505 | 14 | 307 | 3.2 | 14.5 | 0.00 | 0.00 | 0.00 | 42 | 1017.7 |
| 20260507000053 | 14 | 33 | 0.0 | 8.0 | 0.00 | 0.00 | 0.00 | 42 | 1017.5 |
| 20260506234514 | 14 | 30 | 1.6 | 16.1 | 0.00 | 0.00 | 0.00 | 43 | 1017.6 |
| 20260506233123 | 14 | 11 | 3.2 | 16.1 | 0.00 | 0.00 | 0.00 | 40 | 1017.5 |
| 20260506231544 | 15 | 357 | 6.4 | 20.9 | 0.00 | 0.00 | 0.00 | 39 | 1017.7 |
| 20260506230129 | 15 | 351 | 1.6 | 14.5 | 0.00 | 0.00 | 0.00 | 41 | 1017.7 |
| 20260506224546 | 15 | 55 | 4.8 | 16.1 | 0.00 | 0.00 | 0.00 | 39 | 1017.6 |
| 20260506223131 | 15 | 11 | 8.0 | 20.9 | 0.00 | 0.00 | 0.00 | 39 | 1017.7 |
| 20260506221552 | 15 | 34 | 11.3 | 22.5 | 0.00 | 0.00 | 0.00 | 39 | 1017.7 |
| 20260506220007 | 15 | 330 | 3.2 | 25.7 | 0.00 | 0.00 | 0.00 | 42 | 1017.7 |
| 20260506214611 | 15 | 27 | 6.4 | 17.7 | 0.00 | 0.00 | 0.00 | 40 | 1017.9 |
| 20260506213024 | 15 | 288 | 3.2 | 17.7 | 0.00 | 0.00 | 0.00 | 42 | 1018.1 |
| 20260506211621 | 15 | 22 | 9.7 | 19.3 | 0.00 | 0.00 | 0.00 | 41 | 1018.4 |
| 20260506210041 | 16 | 294 | 3.2 | 16.1 | 0.00 | 0.00 | 0.00 | 41 | 1018.5 |
| 20260506204623 | 15 | 20 | 3.2 | 20.9 | 0.00 | 0.00 | 0.00 | 43 | 1018.9 |
| 20260506203041 | 16 | 28 | 1.6 | 17.7 | 0.00 | 0.00 | 0.00 | 45 | 1019.0 |
| 20260506201622 | 15 | 308 | 1.6 | 19.3 | 0.00 | 0.00 | 0.00 | 43 | 1019.1 |
| 20260506200049 | 15 | 65 | 1.6 | 12.9 | 0.00 | 0.00 | 0.00 | 42 | 1019.2 |
| 20260506194631 | 15 | 29 | 1.6 | 14.5 | 0.00 | 0.00 | 0.00 | 43 | 1019.2 |
| 20260506193045 | 14 | 63 | 8.0 | 17.7 | 0.00 | 0.00 | 0.00 | 39 | 1019.4 |
| 20260506191502 | 15 | 331 | 4.8 | 16.1 | 0.00 | 0.00 | 0.00 | 43 | 1019.3 |
| 20260506190055 | 14 | 27 | 4.8 | 19.3 | 0.00 | 0.00 | 0.00 | 46 | 1019.4 |
| 20260506184511 | 13 | 44 | 3.2 | 16.1 | 0.00 | 0.00 | 0.00 | 46 | 1019.7 |
| 20260506183102 | 13 | 54 | 3.2 | 19.3 | 0.00 | 0.00 | 0.00 | 45 | 1019.8 |
| 20260506181519 | 13 | 290 | 1.6 | 9.7 | 0.00 | 0.00 | 0.00 | 44 | 1019.9 |
| 20260506180106 | 13 | 41 | 8.0 | 14.5 | 0.00 | 0.00 | 0.00 | 46 | 1020.0 |
| 20260506174517 | 12 | 45 | 8.0 | 17.7 | 0.00 | 0.03 | 0.00 | 44 | 1020.1 |
| 20260506173124 | 12 | 22 | 3.2 | 16.1 | 0.00 | 0.03 | 0.00 | 48 | 1020.3 |
| 20260506171531 | 13 | 77 | 8.0 | 20.9 | 0.00 | 0.03 | 0.00 | 46 | 1020.3 |
| 20260506170107 | 13 | 33 | 8.0 | 16.1 | 0.00 | 0.03 | 0.00 | 43 | 1020.4 |
| 20260506164518 | 13 | 21 | 4.8 | 16.1 | 0.00 | 0.08 | 0.00 | 42 | 1020.3 |
| 20260506163108 | 12 | 20 | 4.8 | 17.7 | 0.00 | 0.08 | 0.00 | 44 | 1020.1 |
| 20260506161534 | 12 | 358 | 6.4 | 17.7 | 0.00 | 0.08 | 0.00 | 47 | 1020.2 |
| 20260506160110 | 12 | 53 | 3.2 | 14.5 | 0.00 | 0.08 | 0.00 | 48 | 1019.9 |